When you browse on this site, cookies collect data to enhance your experience and personalize the content and advertising you see.
Visit our Privacy Policy to learn more. By continuing to use the site, you agree to this use of cookies and data.
  • In Austria
  • List of Countries
  • For 7 days
  • Water Temperature
  • Weather Map
  • News
  • Weather Widgets
  • user-avatar
    Login

    Hourly Weather Katowice

    Today, 7 April, Tuesday

    Time Temperature Precipitation Wind Pressure Humidity
    00:00 +9°C° 0 mm 2 mps 747 mmHg 58%
    01:00 +8°C° 0 mm 2 mps 747 mmHg 59%
    02:00 +8°C° 0 mm 2 mps 748 mmHg 60%
    03:00 +7°C° 0 mm 2 mps 748 mmHg 60%
    04:00 +7°C° 0 mm 2 mps 748 mmHg 61%
    05:00 +8°C° 0 mm 3 mps 748 mmHg 58%
    06:00 +9°C° 0 mm 3 mps 748 mmHg 55%
    07:00 +9°C° 0 mm 3 mps 748 mmHg 52%
    08:00 +11°C° 0 mm 4 mps 749 mmHg 45%
    09:00 +13°C° 0 mm 4 mps 749 mmHg 38%
    10:00 +14°C° 0 mm 5 mps 749 mmHg 30%
    11:00 +15°C° 0 mm 4 mps 749 mmHg 29%
    12:00 +17°C° 0 mm 4 mps 749 mmHg 27%
    13:00 +18°C° 0 mm 4 mps 748 mmHg 26%
    14:00 +18°C° 0 mm 4 mps 748 mmHg 26%
    15:00 +18°C° 0 mm 4 mps 748 mmHg 26%
    16:00 +18°C° 0 mm 4 mps 748 mmHg 26%
    17:00 +15°C° 0 mm 4 mps 748 mmHg 30%
    18:00 +13°C° 0 mm 3 mps 748 mmHg 35%
    19:00 +12°C° 0 mm 2 mps 748 mmHg 39%
    20:00 +12°C° 0 mm 2 mps 748 mmHg 41%
    21:00 +10°C° 0 mm 2 mps 748 mmHg 44%
    22:00 +9°C° 0 mm 2 mps 748 mmHg 46%
    23:00 +9°C° 0 mm 2 mps 748 mmHg 48%

    Tomorrow, 8 April, Wednesday

    Time Temperature Precipitation Wind Pressure Humidity
    00:00 +8°C° 0 mm 2 mps 748 mmHg 50%
    01:00 +8°C° 0 mm 2 mps 748 mmHg 52%
    02:00 +7°C° 0 mm 2 mps 748 mmHg 52%
    03:00 +8°C° 0 mm 1 mps 748 mmHg 52%
    04:00 +7°C° 0 mm 1 mps 748 mmHg 52%
    05:00 +8°C° 0 mm 1 mps 748 mmHg 50%
    06:00 +9°C° 0 mm 1 mps 748 mmHg 48%
    07:00 +10°C° 0 mm 1 mps 747 mmHg 46%
    08:00 +12°C° 0 mm 1 mps 747 mmHg 41%
    09:00 +14°C° 0 mm 2 mps 747 mmHg 35%
    10:00 +16°C° 0 mm 2 mps 747 mmHg 30%
    11:00 +17°C° 0 mm 2 mps 747 mmHg 26%
    12:00 +18°C° 0 mm 2 mps 746 mmHg 23%
    13:00 +20°C° 0 mm 1 mps 746 mmHg 19%
    14:00 +20°C° 0 mm 1 mps 745 mmHg 20%
    15:00 +20°C° 0 mm 1 mps 745 mmHg 20%
    16:00 +20°C° 0 mm 1 mps 744 mmHg 20%
    17:00 +19°C° 0 mm 1 mps 744 mmHg 24%
    18:00 +16°C° 0 mm 1 mps 744 mmHg 29%
    19:00 +14°C° 0 mm 1 mps 743 mmHg 33%
    20:00 +13°C° 0 mm 1 mps 743 mmHg 37%
    21:00 +13°C° 0 mm 1 mps 743 mmHg 41%
    22:00 +12°C° 0 mm 1 mps 743 mmHg 45%
    23:00 +11°C° 0 mm 1 mps 743 mmHg 49%

    Day after tomorrow, 9 April, Thursday

    Time Temperature Precipitation Wind Pressure Humidity
    00:00 +10°C° 0 mm 1 mps 742 mmHg 53%
    01:00 +10°C° 0 mm 1 mps 742 mmHg 56%
    02:00 +9°C° 0 mm 1 mps 742 mmHg 58%
    03:00 +9°C° 0 mm 1 mps 742 mmHg 59%
    04:00 +8°C° 0 mm 2 mps 742 mmHg 60%
    05:00 +8°C° 0 mm 2 mps 741 mmHg 58%
    06:00 +9°C° 0 mm 2 mps 741 mmHg 56%
    07:00 +10°C° 0 mm 2 mps 741 mmHg 54%
    08:00 +12°C° 0 mm 3 mps 741 mmHg 48%
    09:00 +14°C° 0 mm 4 mps 741 mmHg 43%
    10:00 +17°C° 0 mm 4 mps 740 mmHg 37%
    11:00 +18°C° 0 mm 4 mps 740 mmHg 36%
    12:00 +18°C° 0 mm 4 mps 740 mmHg 34%
    13:00 +19°C° 0 mm 4 mps 740 mmHg 33%
    14:00 +19°C° 0 mm 4 mps 739 mmHg 34%
    15:00 +19°C° 0 mm 4 mps 739 mmHg 35%
    16:00 +19°C° 0 mm 4 mps 739 mmHg 36%
    17:00 +18°C° 0 mm 4 mps 739 mmHg 43%
    18:00 +16°C° 0 mm 3 mps 739 mmHg 50%
    19:00 +14°C° 0 mm 3 mps 739 mmHg 57%
    20:00 +13°C° 0.4 mm 3 mps 739 mmHg 65%
    21:00 +12°C° 0.4 mm 3 mps 740 mmHg 73%
    22:00 +12°C° 0.4 mm 3 mps 740 mmHg 82%
    23:00 +11°C° 0.1 mm 3 mps 740 mmHg 83%

    10 April, Friday

    Time Temperature Precipitation Wind Pressure Humidity
    00:00 +10°C° 0.1 mm 3 mps 741 mmHg 84%
    01:00 +10°C° 0.1 mm 3 mps 741 mmHg 85%
    02:00 +9°C° 0 mm 3 mps 741 mmHg 86%
    03:00 +8°C° 0 mm 3 mps 741 mmHg 87%
    04:00 +7°C° 0 mm 3 mps 741 mmHg 88%
    05:00 +7°C° 0 mm 3 mps 742 mmHg 81%
    06:00 +7°C° 0 mm 3 mps 742 mmHg 74%
    07:00 +8°C° 0 mm 3 mps 742 mmHg 67%
    08:00 +8°C° 0 mm 3 mps 743 mmHg 59%
    09:00 +9°C° 0 mm 3 mps 743 mmHg 52%
    10:00 +10°C° 0 mm 3 mps 743 mmHg 44%
    11:00 +11°C° 0 mm 3 mps 743 mmHg 40%
    12:00 +12°C° 0 mm 3 mps 743 mmHg 36%
    13:00 +13°C° 0 mm 3 mps 743 mmHg 32%
    14:00 +13°C° 0 mm 3 mps 742 mmHg 32%
    15:00 +13°C° 0 mm 3 mps 742 mmHg 33%
    16:00 +15°C° 0 mm 2 mps 742 mmHg 33%
    17:00 +13°C° 0 mm 2 mps 742 mmHg 37%
    18:00 +12°C° 0 mm 2 mps 742 mmHg 42%
    19:00 +10°C° 0 mm 2 mps 742 mmHg 46%
    20:00 +10°C° 0 mm 1 mps 742 mmHg 48%
    21:00 +10°C° 0 mm 1 mps 742 mmHg 50%
    22:00 +9°C° 0 mm 1 mps 742 mmHg 52%
    23:00 +9°C° 0 mm 1 mps 742 mmHg 54%

    11 April, Saturday

    Time Temperature Precipitation Wind Pressure Humidity
    00:00 +8°C° 0 mm 1 mps 742 mmHg 56%
    01:00 +8°C° 0 mm 1 mps 742 mmHg 57%
    02:00 +7°C° 0 mm 1 mps 742 mmHg 59%
    03:00 +7°C° 0 mm 1 mps 742 mmHg 61%
    04:00 +7°C° 0 mm 1 mps 742 mmHg 63%
    05:00 +7°C° 0 mm 1 mps 742 mmHg 61%
    06:00 +8°C° 0 mm 1 mps 742 mmHg 59%
    07:00 +9°C° 0 mm 1 mps 742 mmHg 57%
    08:00 +11°C° 0 mm 1 mps 742 mmHg 51%
    09:00 +12°C° 0 mm 2 mps 742 mmHg 45%
    10:00 +14°C° 0 mm 2 mps 741 mmHg 40%
    11:00 +15°C° 0 mm 2 mps 741 mmHg 38%
    12:00 +16°C° 0 mm 2 mps 741 mmHg 36%
    13:00 +17°C° 0 mm 2 mps 740 mmHg 34%
    14:00 +17°C° 0 mm 2 mps 740 mmHg 35%
    15:00 +17°C° 0 mm 2 mps 740 mmHg 36%
    16:00 +18°C° 0 mm 2 mps 739 mmHg 37%
    17:00 +16°C° 0 mm 2 mps 739 mmHg 43%
    18:00 +15°C° 0 mm 2 mps 739 mmHg 49%
    19:00 +14°C° 0 mm 2 mps 739 mmHg 55%
    20:00 +13°C° 0 mm 2 mps 739 mmHg 59%
    21:00 +13°C° 0 mm 2 mps 739 mmHg 62%
    22:00 +12°C° 0 mm 2 mps 739 mmHg 65%
    23:00 +12°C° 0 mm 2 mps 738 mmHg 66%

    12 April, Sunday

    Time Temperature Precipitation Wind Pressure Humidity
    00:00 +12°C° 0 mm 2 mps 738 mmHg 67%
    01:00 +10°C° 0 mm 2 mps 738 mmHg 69%
    02:00 +10°C° 0.1 mm 2 mps 738 mmHg 70%
    03:00 +10°C° 0.1 mm 2 mps 737 mmHg 71%
    04:00 +10°C° 0.1 mm 2 mps 737 mmHg 73%
    05:00 +11°C° 0 mm 3 mps 737 mmHg 71%
    06:00 +11°C° 0 mm 3 mps 737 mmHg 69%
    07:00 +12°C° 0 mm 3 mps 737 mmHg 67%
    08:00 +14°C° 0 mm 3 mps 737 mmHg 62%
    09:00 +17°C° 0 mm 4 mps 736 mmHg 58%
    10:00 +18°C° 0 mm 4 mps 736 mmHg 53%
    11:00 +19°C° 0.1 mm 4 mps 736 mmHg 50%
    12:00 +20°C° 0.1 mm 4 mps 736 mmHg 47%
    13:00 +21°C° 0.1 mm 4 mps 735 mmHg 44%
    14:00 +21°C° 0.2 mm 4 mps 735 mmHg 45%
    15:00 +21°C° 0.2 mm 4 mps 734 mmHg 46%
    16:00 +20°C° 0.2 mm 4 mps 734 mmHg 47%
    17:00 +19°C° 0.1 mm 4 mps 734 mmHg 52%
    18:00 +18°C° 0.1 mm 3 mps 734 mmHg 57%
    19:00 +17°C° 0.1 mm 2 mps 734 mmHg 62%
    20:00 +16°C° 0 mm 2 mps 734 mmHg 65%
    21:00 +15°C° 0 mm 2 mps 734 mmHg 68%
    22:00 +15°C° 0 mm 2 mps 733 mmHg 71%
    23:00 +15°C° 0.1 mm 2 mps 733 mmHg 71%
    Show more